GSAT0219 (GALILEO 23)

Last updated on Jan. 23, 2020, 4:39 a.m. UTC

1 43566U 18060C   20021.79205746 -.00000063  00000-0  00000-0 0  9994
2 43566  56.7162  45.0897 0005888 274.7028  85.2864  1.70475999  9323
UTC
Height (km)
Latitude
Longitude
Inclination
Orbital Period
UTC large
Height (km)
Speed (km/s)
/
Latitude / Longitude
Inclination (degrees)
Orbital Period (minutes)
Azimuth
Elevation
Range (km)
Doppler Factor
iOS Compass Heading
iOS Angle

Next 30 passes for location: Hong Kong

Rise time Rise Azimuth (degrees) Set time Set Azimuth (degrees) Duration Max altitude (degrees)

No matching passes for this satellites